Location: Newark
(41.0400°S, 62.7845°W)
Time: 23:05:16
(UTC+00:00)

Courier 1B Rocket - Pass Details

Date: 08 December 2021
Orbit: 920 x 1202 km, 28.2° (Epoch: 28 January)

Event Time Altitude Azimuth Distance (km) Brightness Sun altitude
Rises 12:02:32 0° 325° (NW) 3,780 7.8 36.9°
Reaches altitude 10° 12:06:10 10° 343° (NNW) 2,887 7.4 37.6°
Maximum altitude 12:10:37 18° 22° (NNE) 2,434 7.6 38.4°
Drops below altitude 10° 12:15:15 10° 61° (ENE) 3,025 8.6 39.3°
Sets 12:19:10 0° 79° (ENE) 4,035 9.1 40.0°
